Find Starlink 32147

NORAD ID: 60152 Int'l Des: 2024-120 Owner: SPXS Country: US Constellation: starlink operational
LEOCIRCULAR

現在のビュー

3D地球を読み込み中...

About Starlink 32147

Starlink 32147 (NORAD 60152) is a starlink constellation satellite (v2 mini) launched Jun 27, 2024 by SPXS of US. It operates in LEO, CIRCULAR orbit with a mass of 730.00 kg.

Starlink 32147について

説明を読み込み中...

次回通過

Passes for default location (London). Set your location on the main map for personalized predictions.

高度履歴

Loading altitude history...

軌道要素

1 60152U 24120T 26196.83147758 -.00000120 00000-0 75851-5 0 9995
2 60152 53.1602 83.4154 0001409 89.8793 270.2371 15.34384183116017
Epoch: Jul 15, 2026 • Age: 7 hours

現在のステータス

高度 467.6 km
遠地点 / 近地点 N/A
速度 7.64 km/s
衛星直下点 49.58°N, 133.05°W
打ち上げ日 Jun 27, 2024
運用期間 2 years
タイプ internet

技術仕様

分類 Payload
質量 730.00 kg
乾燥質量 700.00 kg
総質量 730.00 kg
長さ 0.30 m
直径 4.10 m
スパン 29.00 m
形状 Box + pan
製造者 SPXS
バスタイプ Starlink V2M
フェーズステータス In Orbit
所有者/国 SPXS/US

Most Searched